Oakes, ND

2:26 PM CDT on July 24, 2017 (GMT -0500)
Oakes

Weather History for K2D5 - February, 2013

Change the Weather History Date:

Wednesday, February 20, 2013

  Actual Average (KP67) Record (KP67)
Temperature  
Mean Temperature -10 °F -  
Max Temperature 1 °F 28 °F 39 °F (1997)
Min Temperature -22 °F 12 °F 30 °F (1997)
Degree Days  
Heating Degree Days 76    
Moisture  
Dew Point -13 °F    
Average Humidity 83    
Maximum Humidity 92    
Minimum Humidity 76    
Precipitation  
Precipitation 0.00 in - - ()
Sea Level Pressure  
Sea Level Pressure 30.34 in    
Wind  
Wind Speed 8 mph (ENE)    
Max Wind Speed 18 mph    
Max Gust Speed -    
Averages and records for this station are not official NWS values.
T = Trace of Precipitation, MM = Missing Value Source: NWS Daily Summary

Daily Weather History Graph

Daily Weather History Graph

Search for Another Location

Airport or City:

Trip Planner

Search our weather history database for the weather conditions in past years. The results will help you decide how hot, cold, wet, or windy it might be!

Date:

Astronomy

Feb. 20, 2013 Rise Set
Actual Time 7:26 AM CST 6:06 PM CST
Civil Twilight 6:56 AM CST 6:36 PM CST
Nautical Twilight 6:21 AM CST 7:11 PM CST
Astronomical Twilight 5:46 AM CST 7:46 PM CST
Moon 1:18 PM CST (2/20) 3:58 AM CST (2/20)
Length of Visible Light 11h 40m
Length of Day
10h 39m
Waxing Gibbous, 76% of the Moon is Illuminated
Feb 20
Waxing Gibbous
Feb 25
Full
Mar 4
Last Quarter
Mar 11
New
Mar 19
First Quarter

Hourly Weather History & Observations

Time (CST) Temp. Windchill Dew Point Humidity Pressure Visibility Wind Dir Wind Speed Gust Speed Precip Events Conditions
12:15 AM -18.4 °F -33.4 °F -22.0 °F 84% 30.43 in - NNE 5.8 mph - N/A   Unknown
12:35 AM -16.6 °F -34.4 °F -20.2 °F 84% 30.43 in - NNE 8.1 mph - N/A   Unknown
12:55 AM -16.6 °F -31.3 °F -20.2 °F 84% 30.43 in - NNE 5.8 mph - N/A   Unknown
1:15 AM -18.4 °F -33.4 °F -22.0 °F 84% 30.43 in - North 5.8 mph - N/A   Unknown
1:35 AM -18.4 °F -36.6 °F -23.8 °F 76% 30.43 in - NNE 8.1 mph - N/A   Unknown
1:55 AM -16.6 °F -35.7 °F -22.0 °F 76% 30.42 in - NNE 9.2 mph - N/A   Unknown
2:15 AM -16.6 °F -32.9 °F -20.2 °F 84% 30.43 in - NNE 6.9 mph - N/A   Unknown
2:35 AM -18.4 °F -31.4 °F -22.0 °F 84% 30.42 in - NNE 4.6 mph - N/A   Unknown
2:55 AM -18.4 °F - -22.0 °F 84% 30.42 in - Calm Calm - N/A   Unknown
3:15 AM -18.4 °F -28.9 °F -22.0 °F 84% 30.41 in - NNE 3.5 mph - N/A   Unknown
3:35 AM -18.4 °F - -22.0 °F 84% 30.41 in - Calm Calm - N/A   Unknown
3:55 AM -20.2 °F -33.5 °F -25.6 °F 76% 30.40 in - North 4.6 mph - N/A   Unknown
4:15 AM -22.0 °F - -27.4 °F 76% 30.41 in - Calm Calm - N/A   Unknown
4:35 AM -20.2 °F -33.5 °F -25.6 °F 76% 30.40 in - NNE 4.6 mph - N/A   Unknown
4:55 AM -20.2 °F - -23.8 °F 83% 30.40 in - Calm Calm - N/A   Unknown
5:15 AM -22.0 °F -33.0 °F -25.6 °F 83% 30.40 in - WNW 3.5 mph - N/A   Unknown
5:35 AM -20.2 °F -33.5 °F -25.6 °F 76% 30.40 in - NNE 4.6 mph - N/A   Unknown
5:55 AM -20.2 °F -37.3 °F -25.6 °F 76% 30.40 in - NE 6.9 mph - N/A   Unknown
6:15 AM -22.0 °F - -27.4 °F 76% 30.40 in - Calm Calm - N/A   Unknown
6:35 AM -20.2 °F -37.3 °F -25.6 °F 76% 30.39 in - NE 6.9 mph - N/A   Unknown
6:55 AM -20.2 °F -41.3 °F -25.6 °F 76% 30.38 in - ENE 10.4 mph - N/A   Unknown
7:15 AM -20.2 °F -35.5 °F -25.6 °F 76% 30.39 in - ENE 5.8 mph - N/A   Unknown
7:35 AM -20.2 °F -35.5 °F -25.6 °F 76% 30.39 in - NE 5.8 mph - N/A   Unknown
7:55 AM -20.2 °F -37.3 °F -25.6 °F 76% 30.39 in - NE 6.9 mph - N/A   Unknown
8:15 AM -18.4 °F -39.1 °F -23.8 °F 76% 30.38 in - NE 10.4 mph - N/A   Unknown
8:35 AM -18.4 °F -37.9 °F -22.0 °F 84% 30.37 in - NE 9.2 mph - N/A   Unknown
8:55 AM -18.4 °F -39.1 °F -22.0 °F 84% 30.37 in - ENE 10.4 mph - N/A   Unknown
9:15 AM -16.6 °F -34.4 °F -20.2 °F 84% 30.38 in - NE 8.1 mph - N/A   Unknown
9:35 AM -13.0 °F -31.3 °F -18.4 °F 77% 30.38 in - ENE 9.2 mph - N/A   Unknown
9:55 AM -13.0 °F -28.6 °F -18.4 °F 77% 30.38 in - ENE 6.9 mph - N/A   Unknown
10:15 AM -11.2 °F -27.8 °F -16.6 °F 77% 30.38 in - ENE 8.1 mph - N/A   Unknown
10:35 AM -11.2 °F -26.4 °F -14.8 °F 84% 30.38 in - East 6.9 mph - N/A   Unknown
10:55 AM -9.4 °F -25.6 °F -13.0 °F 84% 30.37 in - East 8.1 mph - N/A   Unknown
11:15 AM -7.6 °F -26.6 °F -11.2 °F 84% 30.36 in - East 11.5 mph - N/A   Unknown
11:35 AM -7.6 °F -23.4 °F -11.2 °F 84% 30.37 in - ESE 8.1 mph - N/A   Unknown
11:55 AM -7.6 °F -24.6 °F -11.2 °F 84% 30.37 in - East 9.2 mph - N/A   Unknown
12:15 PM -5.8 °F -22.4 °F -9.4 °F 84% 30.37 in - East 9.2 mph - N/A   Unknown
12:35 PM -4.0 °F -19.0 °F -9.4 °F 78% 30.36 in - East 8.1 mph - N/A   Unknown
12:55 PM -4.0 °F -17.8 °F -7.6 °F 85% 30.35 in - East 6.9 mph - N/A   Unknown
1:15 PM -2.2 °F -15.6 °F -7.6 °F 78% 30.35 in - East 6.9 mph - N/A   Unknown
1:35 PM -2.2 °F -16.8 °F -7.6 °F 78% 30.34 in - East 8.1 mph - N/A   Unknown
1:55 PM -0.4 °F -14.7 °F -5.8 °F 78% 30.34 in - East 8.1 mph - N/A   Unknown
2:15 PM -0.4 °F -15.7 °F -5.8 °F 78% 30.34 in - ENE 9.2 mph - N/A   Unknown
2:35 PM -0.4 °F -16.7 °F -4.0 °F 85% 30.33 in - East 10.4 mph - N/A   Unknown
2:55 PM -0.4 °F -16.7 °F -4.0 °F 85% 30.32 in - East 10.4 mph - N/A   Unknown
3:15 PM -0.4 °F -19.9 °F -4.0 °F 85% 30.30 in - East 15.0 mph - N/A   Unknown
3:35 PM -0.4 °F -20.5 °F -4.0 °F 85% 30.30 in - East 16.1 mph - N/A   Unknown
3:55 PM -0.4 °F -20.5 °F -4.0 °F 85% 30.29 in - ENE 16.1 mph - N/A   Unknown
4:15 PM -0.4 °F -20.5 °F -2.2 °F 92% 30.29 in - East 16.1 mph - N/A   Unknown
4:35 PM -0.4 °F -21.2 °F -2.2 °F 92% 30.28 in - East 17.3 mph - N/A   Unknown
4:55 PM -0.4 °F -20.5 °F -4.0 °F 85% 30.28 in - East 16.1 mph - N/A   Unknown
5:15 PM -0.4 °F -21.7 °F -4.0 °F 85% 30.28 in - East 18.4 mph - N/A   Unknown
5:35 PM -0.4 °F -21.2 °F -4.0 °F 85% 30.28 in - East 17.3 mph - N/A   Unknown
5:55 PM -0.4 °F -20.5 °F -4.0 °F 85% 30.28 in - ENE 16.1 mph - N/A   Unknown
6:15 PM -0.4 °F -20.5 °F -4.0 °F 85% 30.28 in - East 16.1 mph - N/A   Unknown
6:35 PM -0.4 °F -21.2 °F -4.0 °F 85% 30.27 in - East 17.3 mph - N/A   Unknown
6:55 PM -0.4 °F -21.7 °F -4.0 °F 85% 30.27 in - East 18.4 mph - N/A   Unknown
7:15 PM -0.4 °F -21.2 °F -4.0 °F 85% 30.26 in - East 17.3 mph - N/A   Unknown
7:35 PM -0.4 °F -20.5 °F -4.0 °F 85% 30.26 in - East 16.1 mph - N/A   Unknown
7:55 PM -0.4 °F -21.2 °F -4.0 °F 85% 30.25 in - East 17.3 mph - N/A   Unknown
8:15 PM -0.4 °F -21.2 °F -2.2 °F 92% 30.25 in - East 17.3 mph - N/A   Unknown
8:35 PM -0.4 °F -19.9 °F -2.2 °F 92% 30.25 in - East 15.0 mph - N/A   Unknown
8:55 PM 1.4 °F -17.6 °F -2.2 °F 85% 30.26 in - East 15.0 mph - N/A   Unknown
9:15 PM 1.4 °F -16.9 °F -2.2 °F 85% 30.26 in - East 13.8 mph - N/A   Unknown
9:35 PM 1.4 °F -17.6 °F -2.2 °F 85% 30.26 in - East 15.0 mph - N/A   Unknown
9:55 PM 1.4 °F -18.2 °F -2.2 °F 85% 30.26 in - East 16.1 mph - N/A   Unknown
10:35 PM 1.4 °F -16.9 °F -2.2 °F 85% 30.26 in - East 13.8 mph - N/A   Unknown
10:55 PM -0.4 °F -15.7 °F -2.2 °F 92% 30.27 in - East 9.2 mph - N/A   Unknown
11:15 PM -0.4 °F -17.6 °F -2.2 °F 92% 30.27 in - East 11.5 mph - N/A   Unknown
11:35 PM -0.4 °F -17.6 °F -4.0 °F 85% 30.27 in - East 11.5 mph - N/A   Unknown
11:55 PM -0.4 °F -17.6 °F -4.0 °F 85% 30.27 in - East 11.5 mph - N/A   Unknown